Meridian, MS

7:42 PM CST on February 23, 2017 (GMT -0600)
Key

Weather History for KMEI - May, 2013

Change the Weather History Date:

Monday, May 20, 2013

  Actual Average Record
Temperature  
Mean Temperature 80 °F 72 °F  
Max Temperature 89 °F 84 °F 97 °F (1962)
Min Temperature 71 °F 60 °F 40 °F (2002)
Degree Days  
Heating Degree Days 0 0  
Month to date heating degree days 55 16  
Since 1 July heating degree days 2512 2550  
Cooling Degree Days 15 7  
Month to date cooling degree days 80 105  
Year to date cooling degree days 166 188  
Growing Degree Days 30 (Base 50)    
Moisture  
Dew Point 69 °F    
Average Humidity 72    
Maximum Humidity 93    
Minimum Humidity 50    
Precipitation  
Precipitation 0.00 in 0.15 in 2.71 in (2000)
Month to date precipitation 5.91 2.90  
Year to date precipitation 33.71 23.83  
Sea Level Pressure  
Sea Level Pressure 29.99 in    
Wind  
Wind Speed 8 mph (South)    
Max Wind Speed 16 mph    
Max Gust Speed 22 mph    
Visibility 9 miles    
Events      
T = Trace of Precipitation, MM = Missing Value Source: NWS Daily Summary

Daily Weather History Graph

Daily Weather History Graph

Search for Another Location

Airport or City:

Trip Planner

Search our weather history database for the weather conditions in past years. The results will help you decide how hot, cold, wet, or windy it might be!

Date:

Astronomy

May. 20, 2013 Rise Set
Actual Time 5:53 AM CDT 7:49 PM CDT
Civil Twilight 5:26 AM CDT 8:17 PM CDT
Nautical Twilight 4:53 AM CDT 8:50 PM CDT
Astronomical Twilight 4:18 AM CDT 9:25 PM CDT
Moon 3:12 PM CDT (5/20) 2:31 AM CDT (5/20)
Length of Visible Light 14h 50m
Length of Day
13h 55m
Waxing Gibbous, 75% of the Moon is Illuminated
May 20
Waxing Gibbous
May 24
Full
May 31
Last Quarter
Jun 8
New
Jun 16
First Quarter

Hourly Weather History & Observations

Time (CDT) Temp. Heat Index Dew Point Humidity Pressure Visibility Wind Dir Wind Speed Gust Speed Precip Events Conditions
12:58 AM 72.0 °F - 70.0 °F 93% 30.01 in 8.0 mi SSW 8.1 mph - N/A   Clear
1:28 AM 71.6 °F - 71.6 °F 100% 30.01 in 7.0 mi South 8.1 mph - N/A   Mostly Cloudy
1:58 AM 73.0 °F - 71.1 °F 93% 29.99 in 8.0 mi South 11.5 mph 21.9 mph N/A   Overcast
2:50 AM 73.4 °F - 69.8 °F 88% 29.99 in 8.0 mi South 12.7 mph 17.3 mph N/A   Overcast
2:58 AM 73.0 °F - 70.0 °F 90% 29.98 in 8.0 mi SSW 11.5 mph - N/A   Overcast
3:28 AM 73.4 °F - 69.8 °F 88% 29.98 in 8.0 mi SSW 9.2 mph - N/A   Overcast
3:58 AM 72.0 °F - 69.1 °F 91% 29.96 in 8.0 mi SSW 10.4 mph - N/A   Overcast
4:24 AM 71.6 °F - 69.8 °F 94% 29.97 in 8.0 mi South 8.1 mph - N/A   Mostly Cloudy
4:58 AM 72.0 °F - 69.1 °F 91% 29.96 in 7.0 mi SSW 8.1 mph - N/A   Overcast
5:58 AM 71.1 °F - 69.1 °F 93% 29.99 in 7.0 mi SSW 4.6 mph - N/A   Overcast
6:58 AM 72.0 °F - 69.1 °F 91% 30.02 in 6.0 mi Calm Calm - N/A   Overcast
7:28 AM 73.4 °F - 69.8 °F 88% 30.04 in 7.0 mi SW 4.6 mph - N/A   Overcast
7:58 AM 73.0 °F - 69.1 °F 87% 30.03 in 9.0 mi SSW 9.2 mph - N/A   Overcast
8:58 AM 75.0 °F - 68.0 °F 79% 30.04 in 10.0 mi SW 5.8 mph - N/A   Overcast
9:26 AM 77.0 °F - 69.8 °F 78% 30.05 in 10.0 mi SSW 6.9 mph - N/A   Scattered Clouds
9:58 AM 79.0 °F - 69.1 °F 72% 30.04 in 10.0 mi SSE 6.9 mph - N/A   Partly Cloudy
10:58 AM 82.0 °F 85.5 °F 69.1 °F 65% 30.04 in 10.0 mi South 8.1 mph - N/A   Partly Cloudy
11:58 AM 82.9 °F 86.5 °F 69.1 °F 63% 30.02 in 10.0 mi SSE 11.5 mph - N/A   Mostly Cloudy
12:58 PM 87.8 °F 92.6 °F 69.8 °F 55% 30.02 in 10.0 mi South 9.2 mph - N/A   Partly Cloudy
1:58 PM 86.0 °F 89.4 °F 68.0 °F 55% 29.99 in 10.0 mi South 9.2 mph - N/A   Mostly Cloudy
2:58 PM 88.0 °F 90.7 °F 66.9 °F 49% 29.98 in 10.0 mi SW 10.4 mph - N/A   Scattered Clouds
3:58 PM 87.1 °F 89.9 °F 66.9 °F 51% 29.96 in 10.0 mi South 8.1 mph - N/A   Scattered Clouds
4:58 PM 88.0 °F 90.7 °F 66.9 °F 49% 29.95 in 10.0 mi SSW 6.9 mph - N/A   Partly Cloudy
5:58 PM 87.1 °F 89.9 °F 66.9 °F 51% 29.93 in 10.0 mi SSW 5.8 mph - N/A   Clear
6:58 PM 84.9 °F 88.8 °F 69.1 °F 59% 29.92 in 10.0 mi SSE 5.8 mph - N/A   Clear
7:58 PM 81.0 °F 84.9 °F 71.1 °F 72% 29.92 in 10.0 mi SE 3.5 mph - N/A   Clear
8:58 PM 77.0 °F - 70.0 °F 79% 29.93 in 10.0 mi SE 5.8 mph - N/A   Clear
9:58 PM 78.1 °F - 70.0 °F 76% 29.95 in 10.0 mi South 9.2 mph - N/A   Clear
10:58 PM 75.9 °F - 70.0 °F 82% 29.96 in 10.0 mi South 12.7 mph - N/A   Clear
11:58 PM 73.9 °F - 70.0 °F 87% 29.97 in 10.0 mi South 8.1 mph - N/A   Clear